Other Public Products
Issued by NWS Charleston, SC

Home | Current Version | Previous Version | Text Only | Print | Product List | Glossary On
Versions: 1 2 3 4 5 6 7 8 9 10 11 12 13 14 15 16 17 18 19 20 21 22 23 24 25 26 27 28 29 30 31 32 33 34 35 36 37 38 39 40 41 42 43 44 45 46 47 48 49 50
000
FPUS82 KCHS 110226
OPUCHS

TEST...KCHS/KSAV Gateway Observations...TEST
National Weather Service Charleston SC
900 PM EST SUN DEC 10 2017

NOTE: "fair" indicates few or no clouds below 12,000 feet with no
significant weather and/or obstructions to visibility.

SCZ050-WAZ558-NCZ071-TXZ119-213-PAZ071-DCZ001-FLZ074-172-MI076-
NYZ176-178-MAZ016-IL014-TNZ027-NJZ106-GAZ044-MD014-110300-

...Gateway Observations for Charleston International...

CITY           SKY/WX    TMP DP  RH WIND       PRES   REMARKS
Chas Airport   CLEAR     34  30  85 SW6       30.24S WCI  29
Seattle        PTCLDY    44  30  57 N10       30.32F
Charlotte      CLEAR     35  25  66 S8        30.14S WCI  29
Dallas DFW     PTCLDY    58  20  22 W8        30.28S
Dallas Love    PTCLDY    60  23  24 SW5       30.29S
Philladelphia  CLOUDY    36  24  62 S9        30.05S WCI  29
Wash National  CLOUDY    37  28  70 S8        30.07F WCI  31
Baltimore      MOCLDY    33  24  69 S5        30.05S WCI  29
Miami          CLEAR     56  41  57 NW5       30.29R
Detroit        CLOUDY    29  23  78 W10       29.96R WCI  20
Newark         CLOUDY    35  23  61 SW10      30.02S WCI  27
Laguardia      CLOUDY    37  22  54 SW13G22   30.01R WCI  29
J F K          MOCLDY    36  25  64 W21       30.03R WCI  25
Boston Logan   CLOUDY    32  25  75 SW10      29.95R WCI  24
Ft. Lauderdale PTCLDY    52  43  71 NW7       30.28R
Chicago O`Hare CLOUDY    30  19  63 NW8       30.06R WCI  22
Chicago Midway CLOUDY    31  20  63 N10       30.07R WCI  22
Houston Bush   PTCLDY    47  40  76 SW3       30.37F
Houston Hobby  PTCLDY    51  37  58 SW5       30.38R
Nashville      CLEAR     39  21  48 S7        30.18R WCI  34
Atlanta        CLEAR     37  25  61 W7        30.22S WCI  32

$$

GAZ044-118-TXZ119-213-NCZ071-DCZ001-MDZ014-506-PAZ021-071-NJZ106-
NYZ176-178-MAZ106-OHZ011-021-055-MIZ076-KYZ091-ILZ014-INZ047-
MNZ060-ONZ431-110300-

...Gateway Observations for Savannah International...

CITY           SKY/WX    TMP DP  RH WIND       PRES   REMARKS
Savannah Arpt  CLEAR     38  32  79 SW3       30.27R
Atlanta        CLEAR     37  25  61 W7        30.22S WCI  32
Charlotte      CLEAR     35  25  66 S8        30.14S WCI  29
Dallas DFW     PTCLDY    58  20  22 W8        30.28S
Houston Bush   PTCLDY    47  40  76 SW3       30.37F
Wash National  CLOUDY    37  28  70 S8        30.07F WCI  31
Wash Dulles    CLOUDY    34  26  72 S7        30.05S WCI  28
Baltimore      MOCLDY    33  24  69 S5        30.05S WCI  29
Philadelphia   CLOUDY    36  24  62 S9        30.05S WCI  29
Newark         CLOUDY    35  23  61 SW10      30.02S WCI  27
Laguardia      CLOUDY    37  22  54 SW13G22   30.01R WCI  29
J F K          MOCLDY    36  25  64 W21       30.03R WCI  25
Boston         CLOUDY    32  25  75 SW10      29.95R WCI  24
Pittsburg      CLOUDY    33  18  53 SW14      29.97S WCI  23
Akron          CLOUDY    30  17  58 SW12      29.95F WCI  20
Cleveland      FLURRIES  31  20  63 SW10      29.98S WCI  22
Cincinnati     MOCLDY    32  20  61 SW7       30.02S WCI  26
Columbus       CLOUDY    31  22  70 SW6       30.01S WCI  25
Detroit        CLOUDY    29  23  78 W10       29.96R WCI  20
Chicago O`Hare CLOUDY    30  19  63 NW8       30.06R WCI  22
Minneapolis    MOCLDY    27  21  78 S5        30.03F WCI  22
Indianapolis   PTCLDY    29  21  72 W8        30.04R WCI  21
Toronto Canada CLOUDY    27  19  74 W17G23    29.84S WCI  14

$$




USA.gov is the U.S. government's official web portal to all federal, state and local government web resources and services.